This is the latest recevied weather packets stored in our database for station/object K2CCS. If no packets are shown the sender has not sent any weather packets the latest 1 day(s).
| Time | Temp. | Humidity | Pressure | Rain* | Wind** | Luminosity | Snow |
|---|---|---|---|---|---|---|---|
| 1778022093 | 20° C | 66% | 1009.5 hPa | 0 mm | 1.34 m/s, 213° | 7 W/m² | - |
| 1778021789 | 20° C | 67% | 1009.7 hPa | 0 mm | 1.34 m/s, 213° | 12 W/m² | - |
| 1778021485 | 20° C | 67% | 1009.9 hPa | 0 mm | 0.45 m/s, 179° | 17 W/m² | - |
| 1778021182 | 20° C | 66% | 1009.6 hPa | 0 mm | 1.79 m/s, 193° | 24 W/m² | - |
| 1778020880 | 20.56° C | 64% | 1009.8 hPa | 0 mm | 1.79 m/s, 193° | 22 W/m² | - |
| 1778020577 | 20.56° C | 63% | 1009.9 hPa | 0 mm | 1.79 m/s, 204° | 15 W/m² | - |
| 1778020273 | 20° C | 64% | 1010 hPa | 0 mm | 3.58 m/s, 179° | 16 W/m² | - |
| 1778019970 | 20° C | 65% | 1010 hPa | 0 mm | 2.24 m/s, 229° | 17 W/m² | - |
| 1778019666 | 20.56° C | 63% | 1009.9 hPa | 0 mm | 3.13 m/s, 149° | 25 W/m² | - |
| 1778019363 | 20.56° C | 61% | 1009.6 hPa | 0 mm | 3.58 m/s, 237° | 24 W/m² | - |
| 1778019059 | 20.56° C | 61% | 1009.1 hPa | 0 mm | 2.24 m/s, 210° | 23 W/m² | - |
| 1778018756 | 20° C | 63% | 1009.2 hPa | 0 mm | 1.34 m/s, 220° | 41 W/m² | - |
| 1778018454 | 20.56° C | 61% | 1009 hPa | 0 mm | 2.24 m/s, 209° | 68 W/m² | - |
| 1778018152 | 20.56° C | 60% | 1009.1 hPa | 0 mm | 4.92 m/s, 223° | 74 W/m² | - |
| 1778017850 | 20.56° C | 61% | 1009 hPa | 0 mm | 2.68 m/s, 218° | 88 W/m² | - |
| 1778017548 | 20° C | 61% | 1008.6 hPa | 0 mm | 3.13 m/s, 230° | 69 W/m² | - |
| 1778017244 | 20° C | 63% | 1008.9 hPa | 0 mm | 3.13 m/s, 229° | 27 W/m² | - |
| 1778016942 | 20° C | 66% | 1009 hPa | 0 mm | 1.79 m/s, 217° | 43 W/m² | - |
| 1778016638 | 19.44° C | 67% | 1008.6 hPa | 0 mm | 2.24 m/s, 305° | 78 W/m² | - |
| 1778016335 | 20° C | 66% | 1009 hPa | 0 mm | 3.13 m/s, 295° | 67 W/m² | - |
| 1778016032 | 20° C | 64% | 1009.3 hPa | 0 mm | 1.79 m/s, 263° | 52 W/m² | - |
| 1778015729 | 20.56° C | 65% | 1009.4 hPa | 0 mm | 2.24 m/s, 242° | 49 W/m² | - |
| 1778015426 | 20.56° C | 65% | 1009.6 hPa | 0 mm | 1.34 m/s, 220° | 31 W/m² | - |
| 1778015123 | 20.56° C | 65% | 1009.4 hPa | 0 mm | 2.24 m/s, 244° | 22 W/m² | - |
| 1778014820 | 21.11° C | 64% | 1009.5 hPa | 0 mm | 3.58 m/s, 167° | 36 W/m² | - |
* Rain latest hour (hover to see other rain measurements)
** Current wind speed in m/s (hover to see current wind gust speed)